Dewpoint
36 36 36 36 37 38 38 38 38 37 37 37 36 36 36 37 37 35 33 35 29 24 22 24 22 21 24 22 15 16 16 19 19 16 16 11 12 10 12 7 12 13 17 17 17 16 13 16 21 16 19 17 16 17
34 34 34 35 36 37 37 36 36 35 35 35 35 35 36 36 36 37 33 36 36 30 26 29 28 25 23 22 20 22 17 16 15 16 19 18 15 13 17 9 15 8 8 6 14 10 18 23 18 17 17 17 16 15
35 35 34 34 34 34 34 34 34 33 34 34 34 34 34 34 35 37 34 36 32 27 25 25 22 26 31 30 26 21 23 21 21 22 15 13 11 8 3 8 12 15 19 16 11 7 8 11 11 12 12 12 12 20
35 35 34 34 35 36 36 35 35 34 33 33 33 33 33 34 36 38 35 36 33 29 21 17 23 21 23 29 29 27 22 25 24 24 19 16 13 13 7 5 3 2 4 3 3 4 3 4 7 10 10 13 18 16
34 34 34 33 34 35 34 34 34 32 31 31 31 33 34 34 35 38 37 36 35 29 22 20 23 21 22 25 26 28 27 25 24 21 20 17 17 15 14 13 10 8 4 2 0 -1 -2 -2 0 2 5 7 10 15
32 33 33 34 34 33 33 32 31 30 30 31 30 32 33 35 37 34 27 33 36 35 27 19 24 22 21 22 22 23 25 25 23 21 19 20 19 16 12 8 7 8 10 9 7 7 6 5 5 6 9 10 13 15
32 32 33 33 34 33 31 32 32 30 30 30 31 31 31 34 35 28 22 27 36 36 27 19 18 20 20 24 24 23 23 23 22 20 19 18 16 17 16 13 11 9 7 8 10 10 10 12 11 12 12 14 16 18
32 31 33 33 32 32 31 30 30 32 32 32 33 33 32 34 35 32 34 37 36 31 28 19 18 16 21 18 16 24 23 23 22 19 17 16 15 17 14 11 10 12 12 13 12 11 12 12 12 12 13 15 15 17
32 32 32 32 32 31 31 32 32 32 33 34 35 36 34 30 26 27 35 36 36 29 22 21 15 9 20 17 20 22 23 18 20 19 16 15 14 12 10 7 7 9 9 11 13 13 13 14 13 14 15 15 16 17
33 31 32 32 31 31 32 32 32 34 35 35 31 26 25 30 34 31 26 26 27 27 27 20 19 15 14 13 16 19 20 16 14 13 17 17 14 13 13 13 15 19 15 13 12 13 13 14 15 16 17 17 17 19
31 32 31 30 30 31 31 32 32 34 31 29 24 22 28 30 25 20 19 19 17 16 20 18 19 17 19 16 15 20 18 18 13 14 15 16 16 25 29 29 30 30 31 31 27 21 20 19 18 18 19 20 20 21
30 29 29 28 28 28 29 31 31 30 29 28 28 29 26 21 18 16 12 12 14 13 17 20 21 22 22 23 21 20 17 17 11 19 18 17 23 24 26 26 28 29 29 28 27 28 28 27 21 19 20 23 26 29
28 28 28 28 28 29 28 28 31 33 33 32 26 22 21 14 13 12 6 9 10 14 18 21 19 20 22 25 22 20 16 14 17 18 18 21 23 24 24 26 27 28 28 27 27 27 27 27 21 22 28 34 30 28
29 28 28 27 28 29 30 30 30 34 28 22 19 15 14 11 12 11 10 8 11 14 17 20 20 19 21 19 16 14 19 20 17 16 14 18 22 23 24 27 26 25 26 27 27 26 25 27 32 33 31 28 28 28
29 28 27 28 29 30 29 31 33 32 26 21 19 13 12 13 12 11 11 12 15 17 21 20 19 21 17 17 19 19 17 16 16 14 16 19 20 22 22 24 24 25 25 26 28 27 30 32 32 28 28 28 29 29
28 30 30 31 30 32 34 35 33 32 28 23 19 16 14 13 13 12 12 13 16 20 23 21 17 15 15 18 16 14 16 12 14 17 19 20 21 22 22 25 25 25 25 26 28 28 28 29 27 26 26 27 27 28
31 27 32 32 32 33 34 33 30 26 23 19 17 19 16 15 14 12 12 14 18 22 13 16 13 11 16 15 15 19 14 15 18 20 21 21 22 23 25 25 24 24 24 25 25 26 26 26 25 25 25 26 26 27
27 28 31 32 34 35 31 30 27 22 18 17 17 16 17 17 16 15 14 14 22 21 19 15 18 15 10 10 13 16 16 18 18 19 20 21 23 25 26 24 23 24 23 24 24 25 25 24 24 24 25 26 26 26
28 28 31 34 33 27 25 23 23 18 16 14 15 14 15 15 16 16 15 16 20 21 23 19 15 13 14 18 16 16 16 17 18 18 20 22 26 27 25 25 24 23 23 24 24 23 22 23 24 25 26 25 24 25
31 33 33 36 27 21 18 18 18 17 13 13 15 15 17 18 18 18 19 20 21 21 18 15 14 17 16 16 17 17 18 19 19 18 17 20 27 26 25 24 24 24 25 25 25 23 23 24 26 26 25 24 23 22
34 32 33 30 22 16 14 15 17 17 15 14 13 14 16 17 17 17 17 19 18 16 14 15 16 16 16 17 18 19 19 20 20 20 20 21 26 26 25 25 25 24 23 22 21 22 22 22 23 24 22 22 22 22
32 32 27 25 22 18 15 11 13 12 12 11 11 11 13 14 14 15 16 15 14 14 15 15 15 16 15 16 18 19 21 22 22 23 23 23 22 23 23 24 23 22 22 22 22 21 21 22 22 22 20 20 20 18
29 26 20 19 19 17 13 5 13 8 11 9 6 11 12 13 14 16 13 12 13 17 17 16 16 16 16 18 21 22 22 20 20 21 21 22 21 22 22 22 23 21 20 21 23 22 21 22 21 19 17 15 14 14
22 18 18 14 13 14 4 6 2 5 6 7 8 9 11 13 14 12 11 11 14 15 15 14 15 14 15 18 17 18 19 19 19 21 21 21 19 18 20 20 20 20 21 21 21 20 20 20 20 19 16 14 13 13
20 13 12 13 2 9 8 5 5 6 5 4 8 9 11 11 10 9 9 10 11 12 13 13 13 14 13 15 17 18 20 18 17 18 18 21 20 19 19 19 18 19 22 19 18 17 17 17 15 14 14 14 14 14
14 10 9 8 6 7 6 6 6 5 5 7 7 9 10 9 8 8 8 10 10 12 12 11 11 11 13 16 16 16 18 19 20 17 17 19 20 20 19 17 17 17 20 20 17 16 16 16 16 16 16 16 15 13
13 10 7 11 9 6 7 6 6 6 6 7 7 7 8 7 7 8 11 12 11 12 13 13 13 13 14 15 18 19 21 20 17 17 18 19 19 19 19 17 15 15 16 16 16 14 13 12 12 12 12 12 12 12
5 7 7 6 6 3 7 5 6 6 6 8 8 6 6 6 7 8 10 12 12 12 13 15 16 16 16 17 19 19 20 22 22 21 18 17 18 19 19 18 17 16 15 14 14 13 13 12 12 12 11 11 10 10
8 6 6 6 3 4 6 7 6 6 9 8 6 6 7 9 9 9 11 11 12 12 12 12 13 15 16 18 20 19 19 22 20 16 11 12 14 16 18 17 17 16 16 16 15 13 12 11 11 10 9 9 9 9
6 5 5 3 7 8 5 2 5 4 7 10 11 11 10 10 11 13 11 10 9 10 11 12 13 12 12 13 15 18 18 21 21 17 12 11 15 17 18 18 19 19 19 18 18 17 16 14 13 11 10 10 9 8
4 4 5 3 6 2 1 -0 1 5 6 7 9 8 9 10 12 12 10 10 10 11 11 10 11 12 11 11 12 14 16 18 17 17 17 17 16 16 16 15 15 15 14 13 13 12 11 10 10 10 9 10 11 9
2 4 6 7 5 0 -1 2 1 4 3 6 7 7 9 9 9 10 10 9 9 9 10 9 9 10 12 14 16 18 18 17 17 17 16 16 15 14 14 14 14 12 11 10 9 9 8 8 7 7 6 6 6 6
-3 -2 -3 1 4 4 0 2 2 4 3 4 4 4 4 5 7 8 9 9 8 8 8 9 10 11 13 16 18 20 19 18 19 19 18 17 16 15 14 13 11 10 9 8 7 6 6 5 5 5 5 5 5 5
Wind_Speed
19 18 17 16 14 13 13 13 11 10 10 8 6 4 3 3 5 4 2 2 1 1 4 6 4 4 3 2 4 1 3 2 2 5 5 8 7 7 7 12 8 14 9 12 15 15 20 14 4 8 6 12 11 15
20 18 16 15 14 13 12 12 11 9 7 6 4 3 2 1 4 4 2 2 1 2 4 1 5 7 9 11 8 4 3 3 2 3 3 3 5 3 4 12 4 18 18 14 12 10 1 2 6 11 8 13 18 21
20 18 16 13 12 11 11 10 9 7 5 4 2 2 1 1 3 5 3 4 2 2 7 4 6 3 8 15 15 8 5 6 5 5 5 6 11 6 12 15 11 5 3 10 15 15 21 21 21 23 20 21 22 17
17 15 13 11 10 9 9 9 9 8 6 3 1 1 1 1 3 10 4 5 3 2 3 5 1 8 6 11 12 17 17 2 2 4 11 14 15 9 18 19 24 20 16 19 28 26 27 31 29 26 26 17 17 23
14 12 11 11 10 10 10 9 8 7 4 2 1 1 1 1 4 5 3 7 7 3 2 9 14 19 12 11 16 13 16 16 11 9 10 16 15 16 19 22 25 22 28 29 32 26 30 28 28 30 29 25 25 24
14 12 11 11 11 11 10 9 7 5 3 2 1 1 1 3 9 3 1 3 9 4 3 4 4 9 1 5 9 12 14 13 10 7 9 11 20 15 17 28 28 29 30 32 41 31 34 34 31 33 33 29 29 28
11 11 11 12 11 10 10 8 6 4 2 2 2 3 2 6 4 2 1 1 10 7 2 5 6 2 2 1 2 4 7 8 10 8 13 21 19 14 21 34 35 33 31 33 33 31 37 37 33 32 25 23 24 20
12 11 11 12 11 10 8 7 4 1 1 1 2 2 3 6 3 2 4 9 12 3 2 4 6 5 0 2 4 4 5 6 9 9 10 18 15 14 17 42 37 34 34 33 37 31 36 40 34 33 29 23 26 27
12 12 11 12 12 10 8 5 3 4 2 2 6 10 4 2 2 1 4 2 5 3 3 4 4 7 1 3 4 4 4 6 7 9 14 8 14 15 28 29 27 28 30 36 32 32 34 38 40 32 29 27 27 28
14 11 13 11 11 10 8 7 6 4 5 6 3 2 2 2 4 2 4 1 1 3 3 4 1 6 3 4 4 4 5 5 6 7 4 8 21 31 32 34 37 38 34 29 29 31 28 29 30 31 28 26 25 24
13 13 13 12 10 8 7 6 5 6 5 3 2 2 1 4 2 3 1 1 2 3 3 4 7 6 4 7 8 5 4 4 5 3 8 6 5 3 13 21 22 23 20 23 28 34 28 24 25 24 22 21 20 21
14 13 11 9 7 5 5 5 4 3 2 3 4 3 2 4 3 1 2 2 4 4 3 4 4 6 6 5 5 5 5 4 8 3 5 4 7 25 25 28 23 19 20 22 24 28 26 28 27 22 19 15 15 14
11 10 8 6 4 2 4 5 6 8 9 3 3 2 1 1 2 4 4 3 3 3 4 3 5 4 4 5 6 5 6 9 3 5 4 4 19 26 30 29 28 22 21 22 18 18 20 21 19 16 14 9 9 10
9 8 6 4 1 1 1 5 8 9 3 2 3 3 4 4 6 8 7 4 3 5 6 6 5 5 3 4 5 5 6 5 5 3 6 17 26 29 28 24 24 24 23 21 14 4 13 13 11 2 4 5 7 10
7 5 3 2 1 2 1 3 14 3 3 3 3 4 9 6 5 4 5 5 6 5 4 6 5 4 5 6 5 7 5 3 4 7 14 24 29 28 29 27 26 21 19 16 10 7 11 13 9 6 4 5 7 10
3 1 3 6 4 8 9 11 4 2 4 3 4 3 4 3 7 5 7 10 4 2 1 2 4 4 5 4 5 8 7 3 6 15 22 26 27 28 28 25 21 17 14 11 6 8 9 11 11 10 11 11 10 12
5 2 2 6 5 2 9 4 3 4 5 4 6 5 5 6 9 4 4 4 1 1 1 1 3 6 6 4 4 2 3 9 19 21 21 24 27 28 24 20 17 14 10 7 5 9 9 10 11 14 17 15 17 18
3 5 7 5 4 4 2 1 4 3 6 7 5 5 5 5 4 4 4 5 5 3 4 5 2 4 6 5 4 4 10 17 18 20 22 25 28 24 13 14 12 8 6 7 9 10 11 13 16 15 16 17 22 21
7 8 7 8 6 4 3 1 1 4 7 3 5 4 4 5 7 7 5 5 6 3 3 3 6 5 6 3 8 17 20 20 23 24 23 23 22 13 12 9 6 5 6 7 9 10 13 13 12 12 13 15 18 15
4 2 4 8 5 3 2 1 1 2 3 2 3 3 4 5 2 2 4 4 5 4 6 5 6 2 4 12 15 18 20 19 19 22 22 18 14 8 8 6 6 7 6 8 11 14 14 15 14 13 14 16 18 17
6 4 7 4 3 5 3 2 2 1 3 3 1 3 5 2 4 3 3 3 5 4 5 3 4 11 13 15 15 16 18 16 18 17 20 19 8 5 5 5 6 8 8 8 12 13 15 15 13 14 17 18 18 19
3 6 3 3 3 2 4 3 0 2 2 3 4 3 4 3 2 1 1 3 3 2 2 5 10 14 16 16 18 17 18 18 16 14 13 10 5 4 5 5 7 11 11 11 12 15 15 14 14 16 19 19 20 20
7 4 4 4 2 1 1 3 1 2 3 2 4 3 3 2 1 1 2 2 1 1 3 7 11 13 15 18 16 13 13 15 13 10 10 6 6 7 8 10 8 10 13 13 13 16 17 17 19 19 20 20 20 21
8 3 2 2 1 2 1 1 2 2 2 2 2 4 2 2 3 1 3 1 1 5 6 11 12 14 12 11 10 14 14 13 12 8 10 6 7 9 9 11 12 12 11 13 14 15 15 17 18 18 19 20 19 20
4 1 1 3 1 2 2 1 1 1 3 1 2 3 2 3 2 2 2 2 6 7 10 12 11 10 11 12 13 14 12 11 10 8 11 8 6 7 12 13 14 13 9 16 16 17 17 16 17 17 17 19 21 19
4 1 2 6 2 3 5 2 3 3 2 2 3 3 3 2 2 2 2 5 4 6 11 12 13 13 12 10 14 15 15 13 6 6 11 11 10 6 10 12 12 12 10 11 16 19 19 18 20 22 22 21 21 20
4 5 1 1 2 4 2 1 1 2 2 2 2 3 2 2 2 0 2 1 4 7 12 12 10 10 12 14 11 10 9 10 9 5 6 12 13 13 10 11 13 7 9 12 15 17 20 19 19 19 19 17 15 14
2 4 5 5 3 1 3 2 3 3 2 1 1 2 2 2 2 3 2 5 10 12 12 11 9 9 10 9 9 9 5 3 1 4 11 18 17 15 14 14 15 19 15 14 15 16 17 18 19 18 19 19 17 13
2 2 4 3 2 1 4 3 3 2 0 1 1 2 2 2 2 4 4 10 11 9 10 12 13 13 10 9 6 7 6 2 4 11 17 12 10 13 11 12 14 15 16 19 22 20 19 18 18 19 18 17 14 14
2 0 2 2 3 4 2 2 2 2 1 2 3 2 2 2 1 2 7 8 10 11 10 9 9 10 10 10 10 9 10 8 7 3 8 14 10 7 9 12 15 15 15 18 20 21 21 18 18 14 15 14 14 15
1 2 2 2 2 0 1 3 3 3 2 2 1 2 3 2 1 1 6 8 8 8 9 12 11 9 10 10 9 8 7 10 8 11 14 13 13 12 12 12 12 12 13 14 14 14 15 15 15 16 17 17 15 14
2 2 3 2 1 2 2 1 0 0 2 1 1 1 2 2 2 2 7 10 8 10 10 11 11 11 12 10 6 3 4 5 8 10 12 12 13 12 11 12 12 13 15 17 16 15 17 18 17 16 17 16 14 13
2 2 2 2 2 2 2 1 2 2 1 1 1 2 1 1 1 2 4 3 4 6 10 12 11 10 10 8 7 7 8 7 12 14 14 14 15 15 13 11 12 15 17 18 16 17 18 18 17 16 14 13 12 10
Wind_Direction
141 145 146 144 147 152 151 151 152 153 152 141 133 132 132 99 112 102 103 56 89 232 250 207 199 181 165 207 256 325 278 187 227 226 240 238 244 230 249 245 227 215 209 212 224 239 249 232 232 229 11 319 319 325
148 147 145 145 150 147 145 145 145 153 149 138 147 153 130 37 138 126 118 62 146 260 285 229 242 229 232 246 252 219 275 253 260 257 236 294 263 277 256 249 218 244 234 245 225 229 319 83 326 313 333 312 318 319
151 152 146 148 149 151 153 154 155 161 154 160 193 224 225 55 143 131 121 137 128 288 284 268 246 238 231 232 218 229 228 226 219 233 266 251 247 250 247 240 247 247 238 252 266 257 270 287 298 299 303 301 309 309
141 141 139 138 143 145 140 145 159 157 143 136 148 87 32 358 112 150 171 171 121 145 255 272 322 268 238 216 213 224 241 203 273 220 250 252 251 233 253 254 251 245 257 266 271 274 279 275 278 283 291 307 308 299
139 144 146 144 145 148 145 151 158 150 148 160 143 83 353 326 117 156 161 193 204 247 282 299 312 280 244 212 220 221 229 238 241 245 238 250 248 258 252 256 252 239 244 245 257 262 263 271 276 278 283 288 284 286
144 145 143 148 152 152 155 161 154 156 160 169 215 184 337 82 124 118 249 198 202 185 269 264 271 273 161 204 230 224 221 226 224 227 239 239 236 234 253 258 259 250 241 239 248 256 263 268 274 274 271 274 278 279
143 146 154 153 153 155 146 145 152 153 184 242 284 276 234 154 159 168 141 52 161 156 260 298 270 281 318 250 217 209 200 217 223 235 235 245 245 238 258 265 262 250 249 247 249 252 259 257 255 262 269 268 269 277
150 152 156 153 147 142 143 142 143 150 281 313 318 241 207 128 93 326 31 142 149 135 178 246 267 308 142 273 275 196 215 215 228 238 241 239 246 236 255 251 263 259 252 251 249 243 248 260 265 263 266 265 267 265
154 150 152 149 140 138 131 129 124 122 94 40 94 107 91 105 179 108 11 222 187 233 243 213 243 291 92 259 268 261 222 246 240 239 238 233 234 232 245 269 272 266 254 252 253 249 247 250 257 263 261 258 255 260
138 138 135 136 138 133 128 121 127 109 87 96 69 90 116 135 333 48 31 81 287 332 271 238 218 261 301 280 269 284 224 249 260 238 204 234 244 254 269 279 286 282 270 263 257 252 246 246 248 252 252 252 247 251
140 137 136 134 132 135 138 132 127 118 63 52 73 87 37 337 100 45 133 200 313 260 231 245 222 262 222 247 278 224 266 259 265 252 202 237 239 328 295 299 293 296 289 260 255 258 254 251 248 248 250 247 243 240
131 132 134 132 130 138 155 153 139 90 86 105 109 82 61 42 62 157 239 284 219 249 222 228 245 228 265 221 247 240 246 246 251 229 228 242 8 341 329 321 321 308 295 282 264 252 245 239 234 235 241 251 242 235
136 135 136 137 135 148 190 182 163 129 115 60 59 82 49 328 183 203 211 220 243 222 239 237 284 259 278 232 246 247 242 233 252 237 256 46 333 329 329 320 326 326 318 317 303 234 225 228 214 221 230 235 233 244
151 150 150 147 140 85 228 218 178 137 94 112 173 229 208 208 235 201 202 204 230 234 268 273 270 249 255 258 252 256 248 249 263 331 354 329 330 321 320 319 326 331 333 339 349 140 157 159 155 140 282 252 186 165
152 160 189 231 266 236 278 162 147 109 128 177 165 234 225 233 249 245 243 271 241 251 267 292 271 247 257 255 248 278 241 273 40 347 313 323 321 319 322 327 328 333 334 340 5 80 118 122 137 120 72 100 128 132
184 262 252 230 228 130 112 104 71 101 156 184 222 246 218 267 262 234 231 255 246 225 251 240 267 270 256 243 241 235 314 348 327 323 317 318 318 315 319 324 324 329 328 335 24 75 100 112 121 116 95 89 95 110
154 195 207 135 132 140 154 121 156 177 202 210 238 229 226 272 257 248 204 241 176 163 255 274 265 237 293 257 261 319 345 314 311 312 312 311 311 312 312 321 327 329 330 353 43 72 84 95 103 95 95 87 87 87
155 199 192 205 131 114 78 63 162 196 234 223 225 233 208 229 249 251 237 219 183 197 171 228 276 249 247 257 275 343 318 312 310 310 308 308 309 308 315 327 333 339 7 45 71 82 86 90 91 94 99 101 90 85
181 194 208 173 150 119 139 134 67 250 238 252 261 246 250 261 244 254 249 238 221 222 243 225 246 235 239 324 316 318 313 312 309 311 307 308 308 325 329 343 358 20 47 62 74 83 81 81 90 92 92 94 95 95
186 358 219 165 130 123 139 160 20 244 261 269 264 255 251 249 273 255 254 217 192 200 215 227 236 317 324 302 304 297 296 298 301 305 309 316 316 339 4 15 27 30 52 78 87 90 86 78 72 80 88 93 95 91
88 113 71 76 59 71 87 142 213 264 283 260 277 300 269 267 253 244 246 198 201 220 237 261 302 308 302 297 291 287 291 296 298 296 296 304 325 358 18 37 57 54 52 64 81 75 72 72 73 84 90 86 85 84
111 104 97 48 93 70 89 14 246 330 264 277 303 318 271 272 259 240 181 203 236 268 297 317 310 309 309 308 307 302 299 309 305 305 315 329 332 354 28 46 79 77 68 67 79 85 82 80 84 88 88 87 84 85
97 64 58 44 117 91 229 0 251 350 260 286 332 276 249 262 252 309 258 241 274 351 318 309 303 299 300 300 305 315 323 327 323 333 336 356 21 33 56 52 60 90 88 68 80 87 88 89 89 91 92 89 91 88
52 66 124 146 92 201 358 200 0 327 313 292 290 277 271 291 338 262 256 266 357 334 334 333 335 330 325 326 333 330 333 333 331 348 3 26 53 48 55 64 63 60 75 87 86 87 88 89 91 89 90 91 89 90
143 237 166 189 28 151 202 235 277 272 258 265 278 288 317 336 275 274 273 322 342 344 340 339 332 326 318 319 328 330 335 340 339 358 7 15 67 78 73 67 59 48 69 94 89 90 87 88 89 91 92 96 99 94
203 213 193 190 180 190 195 221 216 232 255 269 248 295 335 315 276 259 292 328 326 324 330 324 320 320 322 327 329 336 343 343 345 39 16 15 34 67 92 93 90 58 39 94 107 103 99 97 97 96 93 93 96 97
211 202 157 267 106 130 151 69 88 211 246 254 315 324 334 265 264 263 340 1 326 312 307 299 296 297 302 312 322 326 343 24 41 48 32 43 46 45 64 97 95 76 72 90 99 105 108 103 98 97 96 85 79 89
131 171 192 168 132 94 169 183 202 220 236 249 295 266 260 251 292 335 298 332 322 309 306 308 316 318 308 305 319 325 334 28 7 65 80 60 47 46 59 76 88 89 81 80 89 94 97 102 103 102 99 97 92 78
127 130 131 152 123 174 214 209 207 197 330 194 251 274 282 282 305 328 320 322 315 322 340 349 350 345 344 347 349 -0 349 19 95 110 97 91 71 45 45 72 83 85 89 91 90 91 93 98 99 99 97 97 95 90
142 58 122 144 179 209 183 189 193 296 285 295 295 294 279 269 235 343 340 340 353 351 340 339 338 353 357 1 359 14 20 50 60 81 121 121 117 101 78 85 89 91 96 99 100 99 97 93 95 90 92 91 88 88
91 105 103 124 172 195 282 310 294 267 315 297 290 251 284 302 255 27 3 346 338 343 355 3 1 1 3 3 4 12 43 33 59 87 97 107 108 104 98 89 87 92 96 98 101 103 106 98 96 96 92 90 89 90
50 140 162 170 160 347 24 47 16 290 329 251 236 307 301 280 285 358 4 357 359 8 1 358 356 349 339 332 333 3 79 89 91 93 101 105 103 98 97 99 100 100 97 97 99 100 99 100 99 98 96 93 89 86
83 83 72 101 124 157 20 71 31 331 334 301 301 338 328 310 278 330 351 10 335 326 337 329 324 322 325 338 22 69 81 98 108 108 110 111 114 112 104 100 100 103 104 104 101 103 102 103 101 99 97 96 93 90